Location: Dulzura
(32.6442°N, 116.7814°W)
Time: 02:10:21
(UTC+00:00)

Envisat - Visible Passes

Search period start: 02 July 2022 00:00
Search period end: 12 July 2022 00:00
Orbit: 764 x 765 km, 98.2° (Epoch: 01 July)

Date Brightness Start Highest point End Pass type
(mag) Time Alt. Az. Time Alt. Az. Time Alt. Az.
02 Jul 3.8 11:54:31 10° NNE 11:59:29 52° E 12:04:24 10° S visible
03 Jul 5.3 11:18:34 10° NE 11:22:24 21° E 11:26:13 10° SE visible
05 Jul 4.3 11:42:55 10° NNE 11:47:40 39° E 11:52:23 10° SSE visible
06 Jul 5.5 11:07:26 10° NE 11:10:32 16° E 11:13:37 10° SE visible
07 Jul 3.3 12:07:46 10° NNE 12:12:51 74° ESE 12:17:54 10° S visible
08 Jul 4.8 11:31:25 10° NE 11:35:50 30° E 11:40:14 10° SSE visible
09 Jul 5.7 10:56:47 10° ENE 10:58:39 12° E 11:00:31 10° ESE visible
10 Jul 3.7 11:56:04 10° NNE 12:01:04 56° E 12:06:01 10° S visible
11 Jul 5.2 11:20:01 10° NE 11:23:59 23° E 11:27:56 10° SSE visible
